Flag for U.S.A. Weather past 2 weeks in Sioux Falls, South Dakota, U.S.A.

Now
25 °F

Overcast.


Feels Like: 17 °F
Forecast: 6 / 26 °F
Wind: 7 mph from South

Location: Foss Field

Current Time: Mar 3, 2015 at 5:15:02 AM

Latest Report: Mar 3, 2015 at 4:56 AM


Visibility: 10 mi

Pressure: 29.71 "Hg

Humidity: 78%

Dew point: 19 °F

Location of Sioux FallsLocation

Historic Weather in Sioux Falls — Graph

°F

Sioux Falls temperature yesterday

Maximum temperature yesterday: 30 °F (at 3:56 PM)
Minimum temperature yesterday: 2 °F (at 6:56 AM)
Average temperature yesterday: 21 °F

Past Weeks' High & Low Weather Summary

 TemperatureHumidityPressure
High45 °F (Feb 20, 1:56 PM)93% (Feb 21, 12:56 AM)30.88 "Hg (Feb 21, 12:56 AM)
Low-11 °F (Feb 27, 5:56 AM)32% (Feb 23, 2:56 PM)29.72 "Hg (Mar 3, 3:56 AM)
Average14 °F67%30.29 "Hg
* Reported Feb 16 3:56 AM — Mar 3 3:56 AM, Sioux Falls, Weather by CustomWeather, © 2015

Note: Actual official high and low records may vary slightly from our data, if they occured in-between our weather recording intervals... More about our weather records

Advertising

Sioux Falls weather history for previous 24 hours

 ConditionsComfort  
Time TempWeatherWind HumidityBarometerVisibility
3:56 AM
Tue, Mar 3
25 °FOvercast.9 mph78%29.72 "Hg10 mi
2:56 AM25 °FPassing clouds.7 mph78%29.78 "Hg10 mi
1:56 AM26 °FOvercast.9 mph74%29.82 "Hg10 mi
12:56 AM27 °FClear.14 mph72%29.85 "Hg10 mi
11:56 PM
Mon, Mar 2
27 °FMostly cloudy.16 mph72%29.89 "Hg10 mi
10:56 PM28 °FMostly cloudy.23 mph69%29.94 "Hg10 mi
9:56 PM28 °FMostly cloudy.10 mph72%29.98 "Hg10 mi
8:56 PM29 °FOvercast.18 mph69%30.01 "Hg10 mi
7:56 PM29 °FOvercast.17 mph72%30.05 "Hg10 mi
6:56 PM30 °FOvercast.18 mph66%30.08 "Hg10 mi
5:56 PM30 °FOvercast.17 mph64%30.11 "Hg10 mi
4:56 PM30 °FOvercast.16 mph61%30.14 "Hg10 mi
3:56 PM30 °FOvercast.14 mph59%30.18 "Hg10 mi
2:56 PM29 °FOvercast.15 mph58%30.22 "Hg10 mi
1:56 PM27 °FOvercast.15 mph63%30.27 "Hg10 mi
12:56 PM26 °FOvercast.18 mph63%30.32 "Hg10 mi
11:56 AM27 °FMostly cloudy.17 mph63%30.39 "Hg10 mi
10:56 AM24 °FMostly cloudy.14 mph62%30.44 "Hg10 mi
9:56 AM21 °FOvercast.15 mph74%30.48 "Hg10 mi
8:56 AM19 °FPartly sunny.13 mph74%30.49 "Hg10 mi
7:56 AM10 °FPartly sunny.No wind84%30.50 "Hg9 mi
6:56 AM2 °FPassing clouds.No wind80%30.50 "Hg10 mi
5:56 AM3 °FPassing clouds.No wind84%30.52 "Hg10 mi
Weather by CustomWeather, © 2015

See weather overviewHow to use our weather pages